GW1200 Weather Reports


Display with metric or nautical units.
time (UTC)temp
F
wind
direction
speed
MPH
gust
MPH
rain 1hr
in
rain 24hr
in
rain mn
in
humidity
%
barometer
mb
20260906112331 77 5 1.0 1.0 0.00 0.00 0.00 91 4250.1
20260906111331 78 21 1.0 1.0 0.00 0.00 0.00 92 4250.2
20260906110328 78 19 0.0 1.0 0.00 0.00 0.00 93 4250.0
20260906105329 78 15 3.0 3.0 0.00 0.00 0.00 93 4249.8
20260906104323 79 25 3.0 5.0 0.00 0.00 0.00 95 4249.7
20260906103320 79 24 4.0 6.0 0.00 0.00 0.00 95 4249.9
20260906102315 79 42 0.0 1.0 0.00 0.00 0.00 94 4249.7
20260906101311 79 9 3.0 3.0 0.00 0.00 0.00 94 4249.5
20260906100306 79 30 5.0 5.0 0.00 0.00 0.00 97 4249.6
20260906095305 78 154 0.0 0.0 0.00 0.00 0.00 95 4249.1
20260906094302 77 251 0.0 0.0 0.00 0.00 0.00 95 4249.0
20260906093300 78 242 0.0 1.0 0.00 0.00 0.00 95 4249.0
20260906092255 79 238 3.0 3.0 0.00 0.00 0.00 93 4249.1
20260906091253 79 23 1.0 1.0 0.00 0.00 0.00 94 4249.2
20260906090248 79 52 3.0 5.0 0.00 0.00 0.00 96 4249.4
20260906085247 79 45 1.0 1.0 0.00 0.00 0.00 95 4248.9
20260906084247 79 241 0.0 0.0 0.00 0.00 0.00 95 4248.6
20260906083244 79 35 1.0 2.0 0.00 0.00 0.00 97 4248.9
20260906082240 78 231 1.0 1.0 0.00 0.00 0.00 96 4248.2
20260906081236 77 224 2.0 2.0 0.00 0.00 0.00 96 4248.4
20260906080236 77 240 1.0 1.0 0.00 0.00 0.00 98 4248.3
20260906075235 77 152 0.0 0.0 0.00 0.00 0.00 98 4248.4
20260906074230 79 220 0.0 0.0 0.00 0.00 0.00 96 4248.3
20260906073225 78 220 0.0 1.0 0.00 0.00 0.00 96 4248.3
20260906072222 78 223 1.0 1.0 0.00 0.00 0.00 96 4248.6
20260906071217 78 222 1.0 1.0 0.00 0.00 0.00 95 4248.4
20260906070215 79 218 1.0 1.0 0.00 0.00 0.00 94 4248.3
20260906065210 78 216 0.0 0.0 0.00 0.00 0.00 95 4248.3
20260906064207 79 224 0.0 0.0 0.00 0.00 0.00 94 4248.3
20260906063203 79 223 0.0 0.0 0.00 0.00 0.00 92 4248.2
20260906062203 79 221 1.0 1.0 0.00 0.00 0.00 92 4248.2
20260906061200 80 321 0.0 0.0 0.00 0.00 0.00 90 4248.2
20260906060159 80 236 0.0 1.0 0.00 0.00 0.00 90 4248.1
20260906055155 81 220 1.0 2.0 0.00 0.00 0.00 89 4248.0
20260906054151 80 236 2.0 2.0 0.00 0.00 0.00 91 4248.2
20260906053149 80 223 1.0 2.0 0.00 0.00 0.00 91 4248.3
20260906052147 80 222 1.0 1.0 0.00 0.00 0.00 95 4248.3
20260906051143 81 245 0.0 0.0 0.00 0.00 0.00 94 4248.8
20260906050139 81 231 1.0 1.0 0.00 0.00 0.00 94 4248.6
20260906045139 80 235 0.0 1.0 0.00 0.01 0.01 94 4248.6
20260906044136 80 236 1.0 1.0 0.00 0.01 0.01 94 4248.8
20260906043133 82 351 0.0 0.0 0.00 0.01 0.01 96 4248.6
20260906042133 82 350 1.0 1.0 0.00 0.01 0.01 93 4248.7
20260906041129 80 225 0.0 0.0 0.00 0.01 0.01 93 4248.6
20260906040126 80 225 1.0 1.0 0.00 0.01 0.01 93 4248.6
20260906035123 80 224 1.0 2.0 0.00 0.01 0.01 92 4248.5
20260906034123 81 220 1.0 1.0 0.00 0.01 0.01 91 4248.5
20260906033119 81 215 1.0 1.0 0.00 0.01 0.01 91 4248.5
20260906032116 81 221 0.0 1.0 0.00 0.01 0.01 90 4248.8
20260906031113 81 220 0.0 0.0 0.00 0.01 0.01 90 4248.4
20260906030113 82 238 0.0 0.0 0.00 0.01 0.01 89 4248.5
20260906025111 83 222 1.0 1.0 0.00 0.01 0.01 87 4248.3
20260906024107 82 218 0.0 1.0 0.00 0.01 0.01 89 4248.1
20260906023103 82 225 0.0 0.0 0.00 0.01 0.01 89 4248.1
20260906022100 83 224 1.0 1.0 0.00 0.01 0.01 88 4247.9
20260906021054 83 228 0.0 0.0 0.00 0.01 0.01 87 4247.6
20260906020054 84 232 1.0 1.0 0.00 0.01 0.01 85 4247.6
20260906015053 84 237 1.0 1.0 0.00 0.01 0.01 83 4247.5
20260906014050 85 211 0.0 1.0 0.00 0.01 0.01 84 4247.5
20260906013046 85 210 0.0 0.0 0.00 0.01 0.01 83 4247.7
20260906012046 86 211 0.0 0.0 0.00 0.01 0.01 80 4247.4
20260906011042 86 215 1.0 1.0 0.00 0.01 0.01 83 4247.5
20260906010040 87 216 0.0 0.0 0.00 0.01 0.01 80 4247.1
20260906005038 87 231 2.0 2.0 0.00 0.01 0.01 79 4247.2
20260906004039 87 223 1.0 2.0 0.00 0.01 0.01 78 4247.2
20260906003036 89 205 0.0 0.0 0.00 0.01 0.01 74 4247.1
20260906002031 89 246 1.0 1.0 0.00 0.01 0.01 75 4247.1
20260906001027 89 246 0.0 0.0 0.00 0.01 0.01 74 4247.1
20260906000024 91 247 0.0 0.0 0.00 0.01 0.01 77 4247.1
20260905235018 92 246 0.0 1.0 0.00 0.01 0.01 65 4247.1
20260905234014 92 246 0.0 0.0 0.00 0.01 0.01 67 4247.1
20260905233015 93 246 0.0 0.0 0.00 0.01 0.01 65 4247.4
20260905232012 93 71 0.0 0.0 0.00 0.01 0.01 62 4246.9
20260905231009 93 347 0.0 0.0 0.00 0.01 0.01 68 4247.2
20260905230006 93 340 0.0 0.0 0.00 0.01 0.01 72 4247.2
20260905225002 97 339 1.0 1.0 0.00 0.01 0.01 54 4247.2
20260905224002 98 339 0.0 0.0 0.00 0.01 0.01 54 4247.0
20260905223001 97 339 0.0 1.0 0.00 0.01 0.01 55 4246.9
20260905221956 96 339 0.0 1.0 0.00 0.01 0.01 63 4247.0
20260905220955 98 338 0.0 1.0 0.00 0.01 0.01 54 4247.1
20260905215949 98 338 1.0 2.0 0.00 0.01 0.01 53 4247.3
20260905214948 98 338 1.0 1.0 0.00 0.01 0.01 55 4247.3
20260905213943 97 337 1.0 1.0 0.00 0.01 0.01 56 4247.2
20260905212940 96 330 2.0 2.0 0.00 0.01 0.01 63 4247.4
20260905211940 97 321 1.0 1.0 0.00 0.01 0.01 57 4247.3
20260905210938 97 339 1.0 1.0 0.00 0.01 0.01 57 4247.4
20260905205938 97 49 0.0 1.0 0.00 0.01 0.01 58 4247.5
20260905204937 98 25 2.0 2.0 0.00 0.01 0.01 53 4247.6
20260905203932 98 321 1.0 2.0 0.00 0.01 0.01 55 4247.9
20260905202929 97 325 2.0 2.0 0.00 0.01 0.01 57 4247.9
20260905201926 98 2 1.0 1.0 0.00 0.01 0.01 56 4247.9
20260905200920 99 307 0.0 1.0 0.00 0.01 0.01 54 4248.2
20260905195920 98 343 2.0 2.0 0.00 0.01 0.01 57 4248.5
20260905194918 99 249 1.0 1.0 0.00 0.01 0.01 54 4248.3
20260905193917 98 23 1.0 1.0 0.00 0.01 0.01 60 4248.6
20260905192913 98 336 2.0 2.0 0.00 0.01 0.01 57 4248.6
20260905191908 97 337 2.0 2.0 0.00 0.01 0.01 62 4248.9
20260905190908 97 326 2.0 2.0 0.00 0.01 0.01 60 4249.2
20260905185904 97 343 3.0 3.0 0.00 0.01 0.01 56 4249.3
20260905184904 97 357 2.0 2.0 0.00 0.01 0.01 58 4249.2
20260905183902 97 47 1.0 2.0 0.00 0.01 0.01 59 4249.5
20260905182859 96 26 2.0 2.0 0.00 0.01 0.01 60 4249.8
20260905181854 96 353 2.0 3.0 0.00 0.01 0.01 66 4249.6
20260905180853 95 23 2.0 2.0 0.00 0.01 0.01 69 4249.8
20260905175849 96 358 1.0 1.0 0.00 0.01 0.01 67 4250.0
20260905174849 95 15 2.0 3.0 0.00 0.01 0.01 72 4249.9
20260905173847 94 1 2.0 3.0 0.00 0.01 0.01 71 4249.9
20260905172843 94 22 2.0 2.0 0.00 0.01 0.01 69 4250.1
20260905171843 93 13 2.0 2.0 0.00 0.01 0.01 75 4250.1
20260905170841 93 4 1.0 2.0 0.00 0.01 0.01 75 4250.2
20260905165836 93 6 2.0 2.0 0.00 0.01 0.01 71 4250.4
20260905164832 92 6 1.0 1.0 0.00 0.01 0.01 77 4250.6
20260905163828 92 8 2.0 2.0 0.00 0.01 0.01 83 4250.7
20260905162826 91 19 1.0 1.0 0.00 0.01 0.01 83 4250.9
20260905161826 91 19 1.0 2.0 0.00 0.01 0.01 84 4250.9
20260905160824 90 25 1.0 2.0 0.00 0.01 0.01 84 4251.2
20260905155819 89 33 1.0 1.0 0.00 0.01 0.01 83 4251.3
20260905154818 88 48 2.0 2.0 0.00 0.01 0.01 82 4251.3
20260905153815 88 61 1.0 1.0 0.00 0.01 0.01 82 4251.3
20260905152811 87 61 0.0 0.0 0.00 0.01 0.01 84 4251.3
20260905151811 86 54 0.0 0.0 0.00 0.01 0.01 84 4251.3
20260905150807 86 55 1.0 1.0 0.00 0.01 0.01 81 4251.3
20260905145804 84 30 0.0 1.0 0.00 0.01 0.01 86 4251.3
20260905144803 83 33 1.0 1.0 0.00 0.01 0.01 90 4251.4
20260905143803 83 33 1.0 2.0 0.00 0.01 0.01 92 4251.2
20260905142803 82 33 1.0 1.0 0.00 0.01 0.01 95 4251.3
20260905141759 82 18 2.0 2.0 0.00 0.01 0.01 95 4251.3
20260905140756 82 227 0.0 1.0 0.00 0.01 0.01 93 4251.5
20260905135754 80 239 0.0 0.0 0.00 0.01 0.01 94 4251.4
20260905134751 80 298 0.0 1.0 0.00 0.01 0.01 97 4251.6
20260905133751 79 295 0.0 0.0 0.00 0.01 0.01 99 4251.5
20260905132745 78 295 0.0 0.0 0.00 0.01 0.01 99 4251.5
20260905131741 78 7 0.0 0.0 0.00 0.01 0.01 99 4251.8
20260905130737 77 311 1.0 1.0 0.00 0.01 0.01 99 4251.7
20260905125732 77 233 1.0 1.0 0.00 0.01 0.01 99 4251.7
20260905124729 76 227 0.0 0.0 0.00 0.01 0.01 99 4251.8
20260905123725 75 206 0.0 0.0 0.00 0.01 0.01 99 4251.5
20260905122722 75 227 0.0 0.0 0.00 0.01 0.01 99 4251.4
20260905121717 74 210 0.0 1.0 0.00 0.01 0.01 99 4251.4
20260905120713 74 215 1.0 1.0 0.00 0.01 0.01 99 4251.3
20260905115707 74 201 0.0 1.0 0.00 0.01 0.01 99 4251.0
20260905114702 74 214 0.0 0.0 0.00 0.01 0.01 99 4251.1
20260905113700 74 215 1.0 1.0 0.00 0.01 0.01 99 4251.0
20260905112656 74 221 1.0 1.0 0.00 0.01 0.01 99 4251.0